• In Hungary
  • List of Countries
  • For 7 days
  • Water Temperature
  • Satellite Maps
  • Weather Map
  • News
  • Weather Widgets
  • user-avatar
    Login

    Hourly Weather Murzasichle

    Today, 12 December, Tuesday

    Time Temperature Precipitation Wind Pressure Humidity
    00:00 +3°C° 0 mm 6 mps 675 mmHg 87%
    01:00 +3°C° 0 mm 7 mps 675 mmHg 86%
    02:00 +3°C° 0 mm 7 mps 675 mmHg 85%
    03:00 +3°C° 0 mm 7 mps 675 mmHg 85%
    04:00 +4°C° 0 mm 7 mps 675 mmHg 84%
    05:00 +3°C° 0 mm 7 mps 676 mmHg 85%
    06:00 +3°C° 0 mm 6 mps 676 mmHg 86%
    07:00 +3°C° 0 mm 6 mps 677 mmHg 86%
    08:00 +3°C° 0.1 mm 5 mps 677 mmHg 87%
    09:00 +3°C° 0.1 mm 5 mps 678 mmHg 88%
    10:00 +4°C° 0.1 mm 4 mps 679 mmHg 89%
    11:00 +4°C° 0.1 mm 4 mps 680 mmHg 89%
    12:00 +4°C° 0.1 mm 4 mps 680 mmHg 89%
    13:00 +4°C° 0.1 mm 3 mps 681 mmHg 89%
    14:00 +3°C° 0 mm 3 mps 681 mmHg 90%
    15:00 +3°C° 0 mm 2 mps 682 mmHg 91%
    16:00 +2°C° 0 mm 2 mps 682 mmHg 92%
    17:00 +2°C° 0 mm 2 mps 683 mmHg 92%
    18:00 +1°C° 0 mm 2 mps 683 mmHg 93%
    19:00 +2°C° 0 mm 1 mps 684 mmHg 93%
    20:00 +1°C° 0.2 mm 2 mps 684 mmHg 91%
    21:00 +1°C° 0.2 mm 2 mps 685 mmHg 90%
    22:00 -1°C° 0.2 mm 2 mps 685 mmHg 88%
    23:00 -1°C° 0.3 mm 2 mps 686 mmHg 87%

    Tomorrow, 13 December, Wednesday

    Time Temperature Precipitation Wind Pressure Humidity
    00:00 -1°C° 0.3 mm 2 mps 686 mmHg 86%
    01:00 -2°C° 0.3 mm 2 mps 686 mmHg 85%
    02:00 -2°C° 0.2 mm 2 mps 686 mmHg 85%
    03:00 -2°C° 0.2 mm 2 mps 686 mmHg 86%
    04:00 -1°C° 0.2 mm 1 mps 687 mmHg 86%
    05:00 -1°C° 0 mm 1 mps 687 mmHg 86%
    06:00 -1°C° 0 mm 1 mps 687 mmHg 86%
    07:00 -1°C° 0 mm 1 mps 687 mmHg 86%
    08:00 -1°C° 0 mm 1 mps 687 mmHg 83%
    09:00 0°C° 0 mm 1 mps 688 mmHg 80%
    10:00 0°C° 0 mm 1 mps 688 mmHg 78%
    11:00 0°C° 0 mm 1 mps 688 mmHg 75%
    12:00 +1°C° 0 mm 1 mps 687 mmHg 73%
    13:00 +1°C° 0 mm 1 mps 687 mmHg 70%
    14:00 0°C° 0 mm 1 mps 687 mmHg 76%
    15:00 -1°C° 0 mm 1 mps 686 mmHg 81%
    16:00 -2°C° 0 mm 1 mps 686 mmHg 87%
    17:00 -3°C° 0 mm 1 mps 685 mmHg 87%
    18:00 -3°C° 0 mm 1 mps 685 mmHg 88%
    19:00 -5°C° 0 mm 2 mps 685 mmHg 89%
    20:00 -5°C° 0 mm 2 mps 684 mmHg 87%
    21:00 -5°C° 0 mm 2 mps 684 mmHg 85%
    22:00 -6°C° 0 mm 2 mps 683 mmHg 82%
    23:00 -5°C° 0 mm 2 mps 683 mmHg 81%

    Day after tomorrow, 14 December, Thursday

    Time Temperature Precipitation Wind Pressure Humidity
    00:00 -6°C° 0 mm 3 mps 682 mmHg 79%
    01:00 -6°C° 0 mm 3 mps 682 mmHg 77%
    02:00 -6°C° 0 mm 3 mps 681 mmHg 76%
    03:00 -6°C° 0 mm 3 mps 681 mmHg 76%
    04:00 -5°C° 0 mm 3 mps 680 mmHg 75%
    05:00 -5°C° 0 mm 4 mps 680 mmHg 77%
    06:00 -4°C° 0 mm 4 mps 680 mmHg 79%
    07:00 -4°C° 0 mm 4 mps 680 mmHg 81%
    08:00 -3°C° 0 mm 4 mps 680 mmHg 80%
    09:00 -4°C° 0 mm 5 mps 680 mmHg 79%
    10:00 -2°C° 0 mm 5 mps 680 mmHg 77%
    11:00 -2°C° 0.2 mm 5 mps 680 mmHg 78%
    12:00 -2°C° 0.2 mm 4 mps 680 mmHg 79%
    13:00 -1°C° 0.2 mm 4 mps 680 mmHg 80%
    14:00 -2°C° 0.2 mm 4 mps 680 mmHg 83%
    15:00 -1°C° 0.2 mm 3 mps 679 mmHg 86%
    16:00 -2°C° 0.2 mm 2 mps 679 mmHg 89%
    17:00 -2°C° 0 mm 2 mps 679 mmHg 89%
    18:00 -2°C° 0 mm 2 mps 679 mmHg 89%
    19:00 -2°C° 0 mm 2 mps 679 mmHg 90%
    20:00 -2°C° 0 mm 2 mps 679 mmHg 90%
    21:00 -2°C° 0 mm 2 mps 678 mmHg 89%
    22:00 -2°C° 0 mm 2 mps 678 mmHg 89%
    23:00 -2°C° 0 mm 2 mps 677 mmHg 89%

    15 December, Friday

    Time Temperature Precipitation Wind Pressure Humidity
    00:00 -2°C° 0 mm 2 mps 676 mmHg 90%
    01:00 -2°C° 0 mm 3 mps 676 mmHg 90%
    02:00 -2°C° 0 mm 3 mps 675 mmHg 89%
    03:00 -2°C° 0 mm 3 mps 675 mmHg 88%
    04:00 -2°C° 0 mm 3 mps 674 mmHg 87%
    05:00 -1°C° 0.1 mm 3 mps 674 mmHg 87%
    06:00 -1°C° 0.1 mm 3 mps 675 mmHg 87%
    07:00 -1°C° 0.1 mm 3 mps 675 mmHg 87%
    08:00 -1°C° 0 mm 3 mps 675 mmHg 86%
    09:00 -1°C° 0 mm 3 mps 676 mmHg 84%
    10:00 0°C° 0 mm 3 mps 676 mmHg 83%
    11:00 0°C° 0 mm 3 mps 677 mmHg 80%
    12:00 +1°C° 0 mm 2 mps 677 mmHg 77%
    13:00 +1°C° 0 mm 2 mps 677 mmHg 74%
    14:00 -1°C° 0 mm 2 mps 677 mmHg 77%
    15:00 0°C° 0 mm 1 mps 677 mmHg 81%
    16:00 -1°C° 0 mm 1 mps 677 mmHg 85%
    17:00 -1°C° 0 mm 1 mps 677 mmHg 85%
    18:00 -1°C° 0 mm 1 mps 677 mmHg 85%
    19:00 -2°C° 0 mm 1 mps 677 mmHg 85%
    20:00 -1°C° 0 mm 1 mps 677 mmHg 85%
    21:00 -1°C° 0 mm 1 mps 677 mmHg 84%
    22:00 -2°C° 0 mm 0 mps 676 mmHg 84%
    23:00 -2°C° 0 mm 0 mps 676 mmHg 84%

    16 December, Saturday

    Time Temperature Precipitation Wind Pressure Humidity
    00:00 -2°C° 0 mm 0 mps 676 mmHg 85%
    01:00 -2°C° 0 mm 0 mps 676 mmHg 85%
    02:00 -2°C° 0 mm 0 mps 676 mmHg 85%
    03:00 -2°C° 0 mm 0 mps 676 mmHg 86%
    04:00 -1°C° 0 mm 1 mps 675 mmHg 86%
    05:00 -2°C° 0 mm 1 mps 676 mmHg 86%
    06:00 -2°C° 0 mm 1 mps 676 mmHg 86%
    07:00 -2°C° 0 mm 1 mps 676 mmHg 86%
    08:00 -1°C° 0 mm 1 mps 676 mmHg 83%
    09:00 -1°C° 0 mm 1 mps 677 mmHg 81%
    10:00 0°C° 0 mm 1 mps 677 mmHg 79%
    11:00 0°C° 0 mm 1 mps 677 mmHg 77%
    12:00 -1°C° 0 mm 2 mps 678 mmHg 76%
    13:00 -1°C° 0 mm 2 mps 678 mmHg 75%
    14:00 -2°C° 0.1 mm 2 mps 679 mmHg 79%
    15:00 -2°C° 0.1 mm 2 mps 679 mmHg 83%
    16:00 -3°C° 0.1 mm 2 mps 679 mmHg 86%
    17:00 -3°C° 0.1 mm 2 mps 680 mmHg 87%
    18:00 -4°C° 0.1 mm 2 mps 680 mmHg 89%
    19:00 -4°C° 0.1 mm 2 mps 681 mmHg 90%
    20:00 -2°C° 0 mm 1 mps 681 mmHg 90%
    21:00 -2°C° 0 mm 1 mps 682 mmHg 90%
    22:00 -2°C° 0 mm 1 mps 682 mmHg 90%
    23:00 -3°C° 0 mm 1 mps 682 mmHg 91%

    17 December, Sunday

    Time Temperature Precipitation Wind Pressure Humidity
    00:00 -3°C° 0 mm 1 mps 683 mmHg 91%
    01:00 -4°C° 0 mm 1 mps 683 mmHg 92%
    02:00 -4°C° 0 mm 1 mps 683 mmHg 91%
    03:00 -4°C° 0 mm 1 mps 683 mmHg 90%
    04:00 -4°C° 0 mm 1 mps 683 mmHg 90%
    05:00 -4°C° 0 mm 1 mps 684 mmHg 88%
    06:00 -4°C° 0 mm 1 mps 684 mmHg 87%
    07:00 -4°C° 0 mm 1 mps 684 mmHg 85%
    08:00 -3°C° 0 mm 1 mps 685 mmHg 82%
    09:00 -2°C° 0 mm 1 mps 685 mmHg 79%
    10:00 -3°C° 0 mm 2 mps 686 mmHg 76%
    11:00 -3°C° 0 mm 2 mps 686 mmHg 74%
    12:00 -3°C° 0 mm 2 mps 686 mmHg 72%
    13:00 -2°C° 0 mm 2 mps 686 mmHg 71%
    14:00 -3°C° 0 mm 2 mps 686 mmHg 76%
    15:00 -2°C° 0 mm 1 mps 686 mmHg 80%
    16:00 -3°C° 0 mm 1 mps 686 mmHg 85%
    17:00 -3°C° 0 mm 1 mps 686 mmHg 86%
    18:00 -3°C° 0 mm 1 mps 687 mmHg 87%
    19:00 -3°C° 0 mm 1 mps 687 mmHg 88%
    20:00 -3°C° 0 mm 1 mps 687 mmHg 89%
    21:00 -4°C° 0 mm 1 mps 687 mmHg 89%
    22:00 -4°C° 0 mm 1 mps 688 mmHg 89%
    23:00 -4°C° 0 mm 1 mps 688 mmHg 90%
    Show more